Location: Castillon
(43.0896°N, 0.2156°E)
Time: 09:37:13
(UTC+00:00)

Cosmos 1544 Rocket - Pass Details

Date: 21 October 2021
Orbit: 603 x 631 km, 82.5° (Epoch: 08 December)

Event Time Altitude Azimuth Distance (km) Brightness Sun altitude
Rises 18:05:54 0° 174° (S) 2,906 7.0 -11.5°
Reaches altitude 10° 18:08:09 10° 169° (S) 2,005 6.1 -11.9°
Maximum altitude 18:12:28 52° 94° (E) 786 3.7 -12.7°
Drops below altitude 10° 18:16:50 10° 18° (NNE) 2,021 6.0 -13.5°
Sets 18:19:07 0° 14° (NNE) 2,932 6.9 -13.9°
